Hourly Data Report for July 14, 2009

PITT MEADOWS CS
BRITISH COLUMBIA

49°12'29.964" N
122°41'24.076" W
5.00 m
1106178
71775
WMM

Download Data

Hourly Data (July 2009)
Hourly Data Report for July 14, 2009
TIME
LST
Temp Definition
°C
Dew Point Definition
°C
Rel Hum Definition
%
Precip. Amount Definition
mm

Wind Dir Definition
10's deg

Wind Spd Definition
km/h
Visibility Definition
km
Stn Press Definition
kPa
Hmdx Definition


Wind Chill Definition


Weather Definition


00:00 14.5 12.1 86   10 4   102.31     LegendNANA
01:00 14.4 12.2 87     0   102.30     LegendNANA
02:00 14.2 12.2 88   9 2   102.29     LegendNANA
03:00 14.0 11.5 85   9 6   102.31     LegendNANA
04:00 14.1 11.2 83   13 6   102.28     LegendNANA
05:00 13.8 11.3 85   7 2   102.29     LegendNANA
06:00 14.1 11.4 84   9 2   102.31     LegendNANA
07:00 14.5 11.2 81   20 2   102.29     LegendNANA
08:00 15.0 11.2 78   15 4   102.29     LegendNANA
09:00 15.8 11.1 74   18 4   102.27     LegendNANA
10:00 17.2 11.5 69   24 4   102.21     LegendNANA
11:00 18.0 11.5 66   26 4   102.18     LegendNANA
12:00 19.2 11.7 62   21 6   102.12     LegendNANA
13:00 20.0 12.0 60   24 6   102.07     LegendNANA
14:00 21.1 12.3 57   25 6   102.02     LegendNANA
15:00 21.4 12.4 56   23 6   101.97     LegendNANA
16:00 20.7 12.5 59   20 7   101.92     LegendNANA
17:00 21.1 12.3 57   15 6   101.87     LegendNANA
18:00 21.2 12.7 58   14 4   101.83     LegendNANA
19:00 19.7 12.0 61   20 7   101.82     LegendNANA
20:00 18.6 11.8 65   21 4   101.84     LegendNANA
21:00 18.5 11.8 65   15 2   101.87     LegendNANA
22:00 17.3 12.8 75   18 2   101.87     LegendNANA
23:00 17.1 12.5 74   18 2   101.84     LegendNANA

Notes on Data Quality.

Legend

  • E = Estimated
  • M = Missing
  • NA = Not Available*
  • [empty] = Indicates an unobserved value
Date modified: